Showing default

HULIANWANG DIGUI-48, 65051

Orbit data source: Space-Track

HULIANWANG DIGUI-48, 65051 is a payload satellite owned by Zhongguo Xingwang (CN) in LEO that was launched on Wed, 30 Jul 2025 UTC via a CHANG ZHENG 8A launch vehicle from the Wenchang Satellite Launch Center (WSC). Payload-class satellites include a variety of spacecraft equipped with specific instruments for various scientific and technological missions. These include communications satellites like Starlink; space stations such as the ISS; scientific satellites like the Hubble; Earth observation satellites from companies like Planet Labs, Umbra, and HawkEye 360; GPS; miniature CubeSats for education and research; and military/defense satellites.

Loading next visibility...
Identifier
65051, 2025-162J
Orbit
LEO
Country
Flag of CNCN / PRC
Related business
Manufacturer
SECM
Mission
Operational Civil Communications
Bus & Motor
GUOWANG S, Unknown motor
Mass
~800 kg wet, ~800 kg dry
Launch date (UTC)
2025-07-30 (4 months ago)
Launch vehicle
CHANG ZHENG 8A
Launch site
Wenchang Satellite Launch Center (WSC)
Object type
Payload
Rocket body
Debris
Shape & HBR
Box + 2 Pan, 14.5 m
Radar Cross Section
5.935 m², Large (>1 m²)

Expand to show TLE details & history
Last TLE update: 9 hours ago

TLE from 9 hours ago
0 HULIANWANG DIGUI-48
1 65051U 25162J   25342.59497079 -.00000042  00000-0  17604-3 0  9997
2 65051  50.0028 229.0355 0000471  84.2618 275.8308 13.29331605 18017
Epoch: 2025-12-08T14:16Z
TLE epoch observation values (Epoch: 2025-12-08T14:16:45.476Z)
Latitude
0.00001°
Longitude
-62.74573°
Altitude
1,149.756 km
Speed
7.279 km/s
True Right ascension
15h 16m 08s
True Declination
0° 00' 00"
Sunlit
Object was in daylight at epoch
Visualization orbit readout
Latitude
Unknown
Longitude
Unknown
Altitude
Unknown
Speed
Unknown
Apparent Right ascension
Unknown
Apparent Declination
Unknown
Sunlit
N/A
Visualization observer readout
Local Sidereal Time
21:55:58
Azimuth
Unknown
Elevation
Unknown
Doppler factor
Unknown
Orbital elements
Apogee altitude
1,150.345 km
Perigee altitude
1,149.636 km
Semi-major axis
7,528.127 km
Eccentricity
0.00005
Inclination
50.0028°
RAAN
229.0355°
Arg. of periapsis
84.2618°
True anomaly
275.82543°
Mean anomaly
275.8308°
Eccentric anomaly
275.82812°
Mean motion
3.32287 °/min
Orbital period
108.34 mins
BSTAR
0.00017604
Loading maneuver chart data...
Computing Atmospheric mass density...
Loading historical data...
Loading historical data...
Loading historical data...
Loading historical data...
Loading historical data...
Loading historical data...
Loading historical data...

Documentation

Showing up to 5 results
|